[[{"header":{"parameterUnit":"m.s-1","parameterCategory":1,"la1":30.2991,"la2":30.254,"lo1":-89.0895,"lo2":-89.0444,"dy":0.0017,"dx":0.0017,"nx":28,"ny":28,"refTime":"2024-06-08T03:00:00:Z","depth":0,"parameterNumber":2,"parameterNumberName":"U-component_of_WINDS"},"data":[0,0,0,0,0,0,0,0,0,0,0,0,0,0,0,0,0,0,0,0,0,0,0,0,0,0,0,0,0,0,0,0,0,0,0,0,0,0,0,0,0,0,0,0,0,0,0,0,0,0,0,0,0,0,0,0,0,0,-0.8062,-0.8061,0,-0.7935,-0.7933,-0.7932,-0.7854,-0.7853,-0.7853,-0.7853,-0.7722,-0.7718,-0.7715,0,0,0,0,0,0,0,0,0,0,0,0,0,-0.8237,-0.8234,-0.8062,-0.806,-0.8059,-0.7935,-0.7933,-0.7932,-0.7854,-0.7853,-0.7853,-0.7852,-0.7723,-0.7719,-0.7715,0,0,0,0,0,0,0,0,0,0,0,0,0,-0.814,-0.8233,-0.8062,-0.8005,-0.7999,-0.7935,-0.7933,-0.7931,-0.7854,-0.7853,-0.7853,-0.7852,-0.7724,-0.7719,-0.7715,-0.7698,0,0,-0.77,-0.7698,0,0,0,0,0,0,0,0,-0.8146,-0.8134,-0.8015,-0.8009,-0.8002,-0.791,-0.7947,-0.7853,-0.7854,-0.7909,-0.7853,-0.7852,-0.7785,-0.7775,-0.7752,-0.7692,-0.7686,-0.77,-0.7697,-0.7695,-0.7694,0,0,0,0,0,0,0,-0.8153,-0.8139,-0.8012,-0.8014,-0.8005,-0.7986,-0.7971,-0.7929,-0.7852,-0.7904,-0.7898,-0.7884,-0.7781,-0.7757,-0.7749,-0.7684,-0.77,-0.7696,-0.7693,-0.7691,-0.7603,-0.7603,0,0,0,0,0,0,-0.8169,-0.8145,-0.8016,-0.8008,-0.8074,-0.7983,-0.7967,-0.794,-0.7852,-0.7838,-0.7885,-0.7881,-0.7765,-0.7754,-0.7744,-0.7718,-0.7695,-0.7691,-0.7688,-0.7602,-0.7603,-0.7603,0,0,0,0,0,0,-0.8173,-0.8158,-0.8021,-0.8075,-0.8056,-0.7981,-0.7951,-0.7938,-0.7914,-0.7837,-0.7823,-0.7875,-0.7764,-0.775,-0.771,-0.7712,-0.7689,-0.7684,-0.7602,-0.7603,-0.7603,-0.7666,0,0,0,0,0,0,-0.8178,-0.816,-0.8153,-0.8075,-0.8053,-0.799,-0.7951,-0.7935,-0.7906,-0.79,-0.7824,-0.7811,-0.7763,-0.7717,-0.7705,-0.7705,-0.7681,-0.7601,-0.7602,-0.7603,-0.7663,-0.7669,-0.7673,0,0,0,0,0,-0.8185,-0.8176,-0.8153,-0.8138,-0.8043,-0.799,-0.7977,-0.7922,-0.7907,-0.7899,-0.785,-0.7813,-0.7714,-0.7714,-0.7699,-0.7698,-0.7601,-0.7602,-0.7603,-0.7661,-0.7668,-0.7673,0,0,0,0,0,0,-0.8255,-0.8164,-0.8138,-0.8104,-0.8055,-0.7977,-0.7965,-0.7931,-0.7885,-0.7882,-0.7815,-0.7798,-0.7764,-0.7727,-0.7728,-0.7677,-0.7653,-0.7652,-0.7702,-0.7708,-0.7713,-0.7722,-0.7677,0,0,0,0,0,-0.8267,-0.8231,-0.8154,-0.8131,-0.8108,-0.8041,-0.8016,-0.7978,-0.7924,-0.7903,-0.7851,-0.7801,-0.7758,-0.7731,-0.7687,-0.7658,-0.764,-0.765,-0.7655,-0.766,-0.7659,-0.7639,-0.7643,-0.7607,-0.7607,-0.7607,0,0,-0.8291,-0.8237,-0.8218,-0.8144,-0.8102,-0.8066,-0.8024,-0.7988,-0.7961,-0.7898,-0.7856,-0.7816,-0.7755,-0.772,-0.7702,-0.7688,-0.7665,-0.7661,-0.7665,-0.7661,-0.7641,-0.7644,-0.7648,-0.7607,-0.7607,-0.7607,0,0,-0.8315,-0.8271,-0.8247,-0.8205,-0.8142,-0.8097,-0.8092,-0.8018,-0.799,-0.7947,-0.7898,-0.7865,-0.7793,-0.7751,-0.7721,-0.773,-0.7694,-0.7718,-0.7743,-0.7726,-0.7728,-0.7731,-0.7733,-0.7735,-0.7717,-0.7717,-0.7717,0,-0.8353,-0.8297,-0.8239,-0.8206,-0.8174,-0.8115,-0.809,-0.8053,-0.7979,-0.7958,-0.7944,-0.7852,-0.7807,-0.7761,-0.7763,-0.774,-0.7731,-0.7725,-0.7733,-0.7734,-0.7735,-0.7737,-0.7738,-0.772,-0.772,-0.772,-0.7719,0,-0.8346,-0.8308,-0.8296,-0.8226,-0.8193,-0.8164,-0.8101,-0.8075,-0.804,-0.7997,-0.7954,-0.7898,-0.7842,-0.7828,-0.7794,-0.7777,-0.777,-0.7746,-0.772,-0.7743,-0.7743,-0.7744,-0.7725,-0.7724,-0.7723,-0.7722,0,0,-0.8411,-0.8309,-0.8305,-0.8272,-0.8198,-0.8168,-0.8136,-0.8081,-0.806,-0.8011,-0.7982,-0.7922,-0.7899,-0.7864,-0.7824,-0.7809,-0.7819,-0.7785,-0.7783,-0.7793,-0.7796,-0.7815,-0.7817,-0.7795,-0.7795,-0.7795,-0.7801,0,-0.8424,-0.8364,-0.8311,-0.827,-0.8234,-0.8178,-0.815,-0.8101,-0.8061,-0.8024,-0.7978,-0.7937,-0.7909,-0.7888,-0.787,-0.7821,-0.7818,-0.782,-0.7767,-0.7766,-0.7783,-0.7817,-0.7837,-0.7845,-0.7801,-0.7801,-0.7801,0,-0.8431,-0.8384,-0.834,-0.8269,-0.8252,-0.8228,-0.8173,-0.8139,-0.8082,-0.8054,-0.8015,-0.7973,-0.7937,-0.7916,-0.7865,-0.7867,-0.7842,-0.7815,-0.7814,-0.7806,-0.7784,-0.7809,-0.7847,-0.7848,-0.7801,-0.7801,-0.7801,0,-0.8482,-0.8408,-0.8372,-0.8346,-0.8262,-0.8246,-0.8211,-0.8153,-0.8124,-0.8076,-0.8056,-0.8005,-0.7977,-0.7938,-0.7883,-0.7873,-0.7837,-0.7812,-0.7811,-0.7813,-0.7805,-0.7807,-0.7839,-0.7791,-0.7791,-0.7791,-0.7791,0,-0.8502,-0.8477,-0.8394,-0.8371,-0.8342,-0.8281,-0.8253,-0.8212,-0.8162,-0.813,-0.8079,-0.805,-0.798,-0.7943,-0.79,-0.7864,-0.7851,-0.7827,-0.7815,-0.7831,-0.7834,-0.7813,-0.7811,-0.7791,-0.7791,-0.7791,-0.7791,0,-0.8554,-0.8497,-0.8454,-0.8378,-0.8358,-0.834,-0.8274,-0.8251,-0.8207,-0.8168,-0.8155,-0.8086,-0.804,-0.7982,-0.7917,-0.7888,-0.7856,-0.7839,-0.7875,-0.7868,-0.7871,-0.7872,-0.789,-0.7889,-0.7844,-0.7845,-0.7845,0,-0.857,-0.8549,-0.8471,-0.8447,-0.8412,-0.8373,-0.8343,-0.8282,-0.8252,-0.8186,-0.817,-0.812,-0.8077,-0.8005,-0.7949,-0.79,-0.7881,-0.7891,-0.7873,-0.7889,-0.788,-0.7881,-0.7879,-0.7895,-0.7896,-0.7897,-0.7897,0,-0.8604,-0.8577,-0.8535,-0.8483,-0.8448,-0.8404,-0.8358,-0.8341,-0.827,-0.8239,-0.8192,-0.8158,-0.8092,-0.8043,-0.7985,-0.7948,-0.7911,-0.7903,-0.79,-0.7915,-0.7937,-0.7925,-0.7887,-0.7903,-0.7902,-0.7902,-0.7902,-0.7901,-0.8638,-0.8617,-0.8558,-0.8513,-0.8472,-0.843,-0.8404,-0.8357,-0.8316,-0.8257,-0.8224,-0.8177,-0.812,-0.804,-0.8004,-0.7966,-0.7952,-0.7948,-0.7947,-0.7947,-0.7951,-0.7944,-0.7956,-0.7955,-0.7955,-0.7955,-0.7955,0,-0.8669,-0.8629,-0.8588,-0.8525,-0.8489,-0.8457,-0.8404,-0.8376,-0.8336,-0.8286,-0.8245,-0.8189,-0.8141,-0.8082,-0.803,-0.8011,-0.7992,-0.7999,-0.7999,-0.7991,-0.7967,-0.7975,-0.8015,-0.8015,-0.8015,-0.8015,-0.8015,-0.8015,-0.8681,-0.8643,-0.8609,-0.855,-0.851,-0.8464,-0.8436,-0.8397,-0.8357,-0.8298,-0.8257,-0.8219,-0.8165,-0.8108,-0.8063,-0.8046,-0.8029,-0.8041,-0.802,-0.7998,-0.7993,-0.7988,-0.7994,-0.8038,-0.8038,-0.8046,-0.8046,-0.8047]},{"header":{"parameterUnit":"m.s-1","parameterCategory":1,"la1":30.2991,"la2":30.254,"lo1":-89.0895,"lo2":-89.0444,"dy":0.0017,"dx":0.0017,"nx":28,"ny":28,"refTime":"2024-06-08T03:00:00:Z","depth":0,"parameterNumber":3,"parameterNumberName":"V-component_of_WINDS"},"data":[0,0,0,0,0,0,0,0,0,0,0,0,0,0,0,0,0,0,0,0,0,0,0,0,0,0,0,0,0,0,0,0,0,0,0,0,0,0,0,0,0,0,0,0,0,0,0,0,0,0,0,0,0,0,0,0,0,0,2.5737,2.5737,0,2.5759,2.576,2.576,2.5757,2.5757,2.5757,2.5756,2.5777,2.5778,2.5779,0,0,0,0,0,0,0,0,0,0,0,0,0,2.569,2.5691,2.5737,2.5737,2.5737,2.5759,2.576,2.576,2.5757,2.5757,2.5756,2.5756,2.5777,2.5778,2.5779,0,0,0,0,0,0,0,0,0,0,0,0,0,2.5711,2.5691,2.5737,2.5739,2.5739,2.5759,2.576,2.576,2.5757,2.5757,2.5756,2.5756,2.5777,2.5778,2.5779,2.5798,0,0,2.5783,2.5784,0,0,0,0,0,0,0,0,2.571,2.5713,2.5738,2.5739,2.5739,2.5755,2.5751,2.5773,2.5758,2.575,2.5756,2.5756,2.577,2.5772,2.5777,2.5799,2.58,2.5783,2.5784,2.5785,2.5785,0,0,0,0,0,0,0,2.5709,2.5712,2.5746,2.5739,2.5739,2.5738,2.5741,2.5755,2.5763,2.5751,2.5751,2.5754,2.577,2.5776,2.5778,2.58,2.5783,2.5784,2.5785,2.5786,2.5839,2.584,0,0,0,0,0,0,2.5707,2.5711,2.5745,2.5746,2.5723,2.5739,2.5742,2.575,2.5763,2.5764,2.5754,2.5753,2.5774,2.5776,2.5778,2.5802,2.5785,2.5786,2.5787,2.5839,2.5839,2.584,0,0,0,0,0,0,2.5706,2.571,2.5744,2.5729,2.5733,2.5741,2.575,2.5751,2.5757,2.5765,2.5766,2.5759,2.5774,2.5777,2.5793,2.5803,2.5787,2.5788,2.5838,2.5839,2.584,2.5849,0,0,0,0,0,0,2.5705,2.571,2.5717,2.5729,2.5734,2.5759,2.5751,2.5752,2.5759,2.5759,2.577,2.5771,2.5773,2.5792,2.5795,2.5804,2.5789,2.5837,2.5838,2.584,2.5848,2.585,2.5852,0,0,0,0,0,2.5703,2.5718,2.5718,2.5722,2.5743,2.576,2.5762,2.5766,2.576,2.5768,2.5773,2.5771,2.5801,2.5793,2.5797,2.5807,2.5837,2.5838,2.5839,2.5847,2.585,2.5852,0,0,0,0,0,0,2.5706,2.572,2.5719,2.5739,2.5748,2.5759,2.5769,2.5768,2.5779,2.5778,2.5781,2.5783,2.58,2.5805,2.5796,2.5826,2.5818,2.582,2.5822,2.5825,2.5827,2.5826,2.579,0,0,0,0,0,2.571,2.5722,2.5733,2.5749,2.5754,2.5761,2.5768,2.577,2.5779,2.5783,2.579,2.5799,2.581,2.5818,2.5829,2.5848,2.5851,2.5857,2.5859,2.5861,2.5863,2.5874,2.5877,2.5845,2.5845,2.5845,0,0,2.5716,2.5725,2.5732,2.575,2.5758,2.5771,2.5764,2.5778,2.5787,2.5785,2.5802,2.5807,2.5817,2.5836,2.5844,2.584,2.5872,2.5863,2.5864,2.5865,2.5876,2.5879,2.5882,2.5846,2.5846,2.5845,0,0,2.5734,2.5742,2.5757,2.5765,2.5777,2.5782,2.5785,2.5797,2.58,2.5817,2.5816,2.5827,2.5847,2.5855,2.5861,2.5884,2.5882,2.5887,2.5898,2.5909,2.5911,2.5914,2.5922,2.5925,2.5889,2.5889,2.5889,0,2.574,2.576,2.5764,2.5779,2.5787,2.5786,2.5801,2.5809,2.5823,2.5829,2.5824,2.585,2.5857,2.5877,2.5883,2.5888,2.5892,2.5886,2.5911,2.5913,2.5915,2.5924,2.5927,2.589,2.5889,2.5889,2.5889,0,2.5768,2.5782,2.5792,2.5808,2.5817,2.5831,2.5837,2.5846,2.5847,2.5852,2.5869,2.5878,2.5891,2.5896,2.5896,2.5917,2.5914,2.591,2.5902,2.5919,2.5927,2.593,2.589,2.589,2.589,2.589,0,0,2.5789,2.5807,2.5811,2.5818,2.5832,2.5842,2.5857,2.5871,2.5878,2.5889,2.5901,2.5918,2.5915,2.5923,2.5924,2.5934,2.5952,2.5929,2.5929,2.5933,2.5976,2.5979,2.5982,2.5951,2.5951,2.5952,2.5975,0,2.5809,2.5836,2.584,2.5863,2.5876,2.5877,2.5889,2.5899,2.5904,2.5915,2.5921,2.5933,2.5928,2.5932,2.5942,2.5948,2.596,2.5946,2.5962,2.5963,2.596,2.5986,2.599,2.6011,2.5978,2.5978,2.5979,0,2.5836,2.5848,2.5873,2.5886,2.5892,2.5903,2.5917,2.5928,2.5939,2.5942,2.5951,2.5951,2.5966,2.5958,2.5978,2.5968,2.5975,2.5979,2.598,2.5982,2.5972,2.5989,2.6018,2.6021,2.5983,2.5983,2.5983,0,2.585,2.5872,2.589,2.5897,2.5912,2.592,2.5926,2.5937,2.5945,2.5957,2.5962,2.5975,2.5982,2.5992,2.5996,2.5989,2.6017,2.6008,2.602,2.602,2.6026,2.6025,2.6056,2.6029,2.6029,2.6029,2.6029,0,2.5872,2.5887,2.5897,2.5908,2.5925,2.593,2.5947,2.5953,2.5963,2.5975,2.5975,2.5986,2.5991,2.6003,2.6006,2.6023,2.6026,2.6029,2.603,2.6029,2.6029,2.6034,2.6033,2.603,2.603,2.603,2.603,0,2.589,2.5897,2.5917,2.593,2.5934,2.5946,2.5957,2.5968,2.5973,2.5989,2.5992,2.6,2.6015,2.602,2.6037,2.6039,2.6059,2.6058,2.6056,2.6056,2.6067,2.6066,2.6103,2.6108,2.6077,2.6078,2.6078,0,2.5904,2.5916,2.5931,2.594,2.5947,2.5961,2.597,2.5975,2.5984,2.5998,2.6007,2.6022,2.6033,2.6056,2.6063,2.6076,2.6076,2.6088,2.6078,2.6077,2.6077,2.6076,2.6078,2.609,2.609,2.609,2.609,0,2.5929,2.5932,2.5945,2.596,2.5971,2.5983,2.5994,2.6001,2.6007,2.6018,2.6033,2.6042,2.606,2.6074,2.6088,2.6094,2.6094,2.6094,2.6097,2.6097,2.6095,2.6097,2.6061,2.6093,2.6093,2.6092,2.6092,2.6092,2.5946,2.5957,2.597,2.5985,2.5994,2.6005,2.6016,2.6023,2.6036,2.6052,2.6054,2.607,2.6081,2.6099,2.6106,2.6119,2.6116,2.612,2.6122,2.6123,2.6124,2.6093,2.6121,2.6121,2.6121,2.6121,2.6121,0,2.5971,2.598,2.5993,2.601,2.6022,2.6021,2.6033,2.6043,2.6058,2.6069,2.6081,2.6098,2.6112,2.6121,2.6135,2.6143,2.6144,2.6147,2.6147,2.6148,2.6126,2.6122,2.6147,2.6147,2.6147,2.6147,2.6147,2.6147,2.5986,2.6005,2.601,2.6033,2.6041,2.6058,2.6066,2.6076,2.6084,2.6104,2.6116,2.6122,2.6132,2.6147,2.616,2.6162,2.6167,2.6171,2.6173,2.6152,2.615,2.6147,2.6143,2.6172,2.6172,2.6195,2.6195,2.6195]}]]